When you browse on this site, cookies collect data to enhance your experience and personalize the content and advertising you see.
Visit our Privacy Policy to learn more. By continuing to use the site, you agree to this use of cookies and data.
EN

Hourly Weather Saint George's

Today, 11 August, Tuesday

Time Temperature Precipitation Wind Pressure Humidity
00:00 +29°C° 0 mm 6 mps 751 mmHg 83%
01:00 +29°C° 0 mm 6 mps 751 mmHg 83%
02:00 +29°C° 0 mm 6 mps 750 mmHg 81%
03:00 +29°C° 0 mm 6 mps 750 mmHg 81%
04:00 +29°C° 0 mm 6 mps 750 mmHg 81%
05:00 +28°C° 0 mm 7 mps 750 mmHg 82%
06:00 +29°C° 0.1 mm 7 mps 750 mmHg 80%
07:00 +30°C° 0.1 mm 7 mps 751 mmHg 78%
08:00 +30°C° 0 mm 7 mps 751 mmHg 75%
09:00 +30°C° 0.1 mm 7 mps 751 mmHg 75%
10:00 +32°C° 0.1 mm 7 mps 751 mmHg 74%
11:00 +32°C° 0.1 mm 6 mps 751 mmHg 73%
12:00 +32°C° 0.1 mm 7 mps 751 mmHg 74%
13:00 +32°C° 0.1 mm 7 mps 750 mmHg 75%
14:00 +32°C° 0.1 mm 7 mps 750 mmHg 76%
15:00 +32°C° 0.1 mm 7 mps 750 mmHg 76%
16:00 +30°C° 0.1 mm 7 mps 749 mmHg 77%
17:00 +30°C° 0.1 mm 7 mps 749 mmHg 78%
18:00 +30°C° 0 mm 7 mps 749 mmHg 79%
19:00 +29°C° 0 mm 7 mps 750 mmHg 81%
20:00 +29°C° 0 mm 7 mps 750 mmHg 82%
21:00 +29°C° 0.2 mm 7 mps 750 mmHg 83%
22:00 +29°C° 0.2 mm 7 mps 751 mmHg 84%
23:00 +29°C° 0.2 mm 8 mps 751 mmHg 84%

Tomorrow, 12 August, Wednesday

Time Temperature Precipitation Wind Pressure Humidity
00:00 +29°C° 0.2 mm 7 mps 751 mmHg 84%
01:00 +29°C° 0.2 mm 7 mps 750 mmHg 84%
02:00 +29°C° 0.2 mm 7 mps 750 mmHg 83%
03:00 +29°C° 0.1 mm 7 mps 750 mmHg 83%
04:00 +29°C° 0.1 mm 7 mps 750 mmHg 82%
05:00 +29°C° 0.1 mm 7 mps 750 mmHg 82%
06:00 +29°C° 0 mm 7 mps 750 mmHg 81%
07:00 +29°C° 0 mm 7 mps 750 mmHg 80%
08:00 +30°C° 0 mm 7 mps 751 mmHg 79%
09:00 +30°C° 0.1 mm 7 mps 751 mmHg 79%
10:00 +30°C° 0.1 mm 7 mps 751 mmHg 80%
11:00 +30°C° 0.1 mm 7 mps 751 mmHg 81%
12:00 +30°C° 0.4 mm 7 mps 751 mmHg 79%
13:00 +30°C° 0.4 mm 6 mps 750 mmHg 78%
14:00 +32°C° 0.4 mm 6 mps 750 mmHg 76%
15:00 +30°C° 0.3 mm 6 mps 749 mmHg 78%
16:00 +30°C° 0.3 mm 6 mps 749 mmHg 80%
17:00 +29°C° 0.3 mm 6 mps 749 mmHg 83%
18:00 +29°C° 0.1 mm 7 mps 749 mmHg 83%
19:00 +29°C° 0.1 mm 7 mps 750 mmHg 83%
20:00 +29°C° 0.1 mm 8 mps 750 mmHg 83%
21:00 +29°C° 0.4 mm 8 mps 751 mmHg 82%
22:00 +29°C° 0.4 mm 8 mps 751 mmHg 82%
23:00 +29°C° 0.4 mm 9 mps 751 mmHg 82%

Day after tomorrow, 13 August, Thursday

Time Temperature Precipitation Wind Pressure Humidity
00:00 +29°C° 0.5 mm 9 mps 751 mmHg 82%
01:00 +29°C° 0.5 mm 9 mps 750 mmHg 82%
02:00 +29°C° 0.5 mm 9 mps 750 mmHg 82%
03:00 +29°C° 0 mm 9 mps 750 mmHg 81%
04:00 +29°C° 0 mm 9 mps 750 mmHg 80%
05:00 +29°C° 0 mm 8 mps 750 mmHg 79%
06:00 +29°C° 0 mm 8 mps 750 mmHg 78%
07:00 +29°C° 0 mm 8 mps 750 mmHg 77%
08:00 +31°C° 0 mm 8 mps 751 mmHg 75%
09:00 +31°C° 0 mm 8 mps 751 mmHg 74%
10:00 +30°C° 0 mm 7 mps 751 mmHg 72%
11:00 +32°C° 0 mm 7 mps 751 mmHg 70%
12:00 +32°C° 0 mm 7 mps 751 mmHg 69%
13:00 +32°C° 0 mm 7 mps 750 mmHg 68%
14:00 +32°C° 0 mm 7 mps 750 mmHg 67%
15:00 +32°C° 0.1 mm 7 mps 749 mmHg 70%
16:00 +30°C° 0.1 mm 7 mps 749 mmHg 74%
17:00 +30°C° 0.1 mm 7 mps 748 mmHg 77%
18:00 +30°C° 0 mm 7 mps 749 mmHg 76%
19:00 +29°C° 0 mm 7 mps 749 mmHg 75%
20:00 +29°C° 0 mm 7 mps 750 mmHg 73%
21:00 +29°C° 0 mm 7 mps 750 mmHg 74%
22:00 +29°C° 0 mm 7 mps 750 mmHg 75%
23:00 +29°C° 0 mm 7 mps 750 mmHg 76%

14 August, Friday

Time Temperature Precipitation Wind Pressure Humidity
00:00 +29°C° 0 mm 7 mps 750 mmHg 77%
01:00 +29°C° 0 mm 7 mps 749 mmHg 77%
02:00 +29°C° 0 mm 6 mps 749 mmHg 78%
03:00 +28°C° 0.1 mm 6 mps 749 mmHg 80%
04:00 +28°C° 0.1 mm 6 mps 749 mmHg 82%
05:00 +28°C° 0.1 mm 5 mps 749 mmHg 84%
06:00 +28°C° 0 mm 5 mps 749 mmHg 83%
07:00 +29°C° 0 mm 5 mps 750 mmHg 81%
08:00 +29°C° 0 mm 5 mps 750 mmHg 79%
09:00 +30°C° 0 mm 5 mps 750 mmHg 76%
10:00 +30°C° 0 mm 5 mps 750 mmHg 73%
11:00 +32°C° 0 mm 5 mps 750 mmHg 71%
12:00 +32°C° 0 mm 5 mps 750 mmHg 71%
13:00 +32°C° 0 mm 5 mps 749 mmHg 71%
14:00 +32°C° 0 mm 5 mps 749 mmHg 72%
15:00 +32°C° 0.1 mm 6 mps 749 mmHg 73%
16:00 +30°C° 0.1 mm 6 mps 748 mmHg 75%
17:00 +30°C° 0.1 mm 6 mps 748 mmHg 77%
18:00 +30°C° 0.1 mm 6 mps 748 mmHg 79%
19:00 +29°C° 0.1 mm 6 mps 749 mmHg 81%
20:00 +29°C° 0.1 mm 6 mps 749 mmHg 84%
21:00 +29°C° 0 mm 6 mps 750 mmHg 83%
22:00 +29°C° 0 mm 6 mps 750 mmHg 83%
23:00 +29°C° 0 mm 6 mps 750 mmHg 82%

15 August, Saturday

Time Temperature Precipitation Wind Pressure Humidity
00:00 +29°C° 0 mm 6 mps 749 mmHg 82%
01:00 +29°C° 0 mm 6 mps 749 mmHg 81%
02:00 +29°C° 0 mm 6 mps 748 mmHg 81%
03:00 +29°C° 0 mm 6 mps 748 mmHg 80%
04:00 +29°C° 0 mm 6 mps 748 mmHg 80%
05:00 +29°C° 0 mm 6 mps 748 mmHg 80%
06:00 +29°C° 0 mm 6 mps 749 mmHg 78%
07:00 +30°C° 0 mm 6 mps 749 mmHg 77%
08:00 +30°C° 0 mm 5 mps 750 mmHg 75%
09:00 +30°C° 0.1 mm 5 mps 750 mmHg 74%
10:00 +32°C° 0.1 mm 5 mps 750 mmHg 74%
11:00 +32°C° 0.1 mm 5 mps 750 mmHg 73%
12:00 +32°C° 0.4 mm 6 mps 750 mmHg 73%
13:00 +32°C° 0.4 mm 6 mps 749 mmHg 73%
14:00 +32°C° 0.4 mm 6 mps 749 mmHg 73%
15:00 +32°C° 0 mm 6 mps 748 mmHg 74%
16:00 +32°C° 0 mm 6 mps 748 mmHg 75%
17:00 +30°C° 0 mm 6 mps 748 mmHg 76%
18:00 +30°C° 0 mm 6 mps 748 mmHg 77%
19:00 +30°C° 0 mm 6 mps 749 mmHg 79%
20:00 +30°C° 0 mm 6 mps 749 mmHg 81%
21:00 +30°C° 0.1 mm 6 mps 750 mmHg 81%
22:00 +29°C° 0.1 mm 5 mps 750 mmHg 80%
23:00 +29°C° 0.1 mm 5 mps 750 mmHg 80%

16 August, Sunday

Time Temperature Precipitation Wind Pressure Humidity
00:00 +29°C° 0.1 mm 5 mps 750 mmHg 81%
01:00 +29°C° 0.1 mm 5 mps 749 mmHg 81%
02:00 +29°C° 0.1 mm 5 mps 749 mmHg 81%
03:00 +29°C° 0.2 mm 4 mps 749 mmHg 81%
04:00 +29°C° 0.2 mm 4 mps 749 mmHg 82%
05:00 +29°C° 0.2 mm 4 mps 749 mmHg 82%
06:00 +29°C° 0.1 mm 4 mps 749 mmHg 80%
07:00 +30°C° 0.1 mm 5 mps 749 mmHg 78%
08:00 +30°C° 0.1 mm 5 mps 750 mmHg 76%
09:00 +30°C° 0.1 mm 5 mps 750 mmHg 76%
10:00 +32°C° 0.1 mm 6 mps 750 mmHg 76%
11:00 +32°C° 0.1 mm 6 mps 750 mmHg 77%
12:00 +32°C° 0.4 mm 5 mps 749 mmHg 75%
13:00 +32°C° 0.4 mm 5 mps 749 mmHg 73%
14:00 +32°C° 0.4 mm 5 mps 749 mmHg 71%
15:00 +32°C° 0.3 mm 5 mps 748 mmHg 72%
16:00 +32°C° 0.3 mm 5 mps 748 mmHg 73%
17:00 +30°C° 0.3 mm 6 mps 748 mmHg 74%
18:00 +30°C° 0.3 mm 6 mps 748 mmHg 77%
19:00 +30°C° 0.3 mm 6 mps 748 mmHg 79%
20:00 +30°C° 0.3 mm 6 mps 749 mmHg 82%
21:00 +30°C° 0.4 mm 6 mps 749 mmHg 82%
22:00 +29°C° 0.4 mm 6 mps 749 mmHg 82%
23:00 +29°C° 0.4 mm 6 mps 750 mmHg 83%
Show more